Time,TemperatureF,DewpointF,PressureIn,WindDirection,WindDirectionDegrees,WindSpeedMPH,WindSpeedGustMPH,Humidity,HourlyPrecipIn,Conditions,Clouds,dailyrainin,SoftwareType,DateUTC
2013-04-09 00:00:00,76.3,72.5,29.83,SE,135,1.9,8.7,88,0.00,,SHRA,0.00,VWS V13.01,2013-04-08 14:00:00,
2013-04-09 00:15:00,76.1,72.6,29.83,SE,135,3.1,12.5,89,0.00,,SHRA,0.00,VWS V13.01,2013-04-08 14:15:00,
2013-04-09 00:30:00,76.1,73.0,29.82,SE,135,4.4,16.3,90,0.00,,SHRA,0.00,VWS V13.01,2013-04-08 14:30:00,
2013-04-09 00:45:00,75.7,72.9,29.82,SE,135,5.6,13.7,91,0.00,,SHRA,0.00,VWS V13.01,2013-04-08 14:45:00,
2013-04-09 01:00:00,75.4,72.9,29.81,SE,135,3.1,11.3,92,0.00,,SHRA,0.00,VWS V13.01,2013-04-08 15:00:00,
2013-04-09 01:15:00,75.3,72.5,29.81,SE,135,4.4,12.5,91,0.00,,SHRA,0.00,VWS V13.01,2013-04-08 15:15:00,
2013-04-09 01:30:00,75.2,73.0,29.80,SE,135,4.4,12.5,93,0.00,,SHRA,0.00,VWS V13.01,2013-04-08 15:30:00,
2013-04-09 01:45:00,74.7,72.9,29.79,South,180,4.4,15.0,94,0.01,,SHRA,0.01,VWS V13.01,2013-04-08 15:45:00,
2013-04-09 02:00:00,74.4,72.9,29.79,SE,135,4.4,15.0,95,0.01,,SHRA,0.01,VWS V13.01,2013-04-08 16:00:00,
2013-04-09 02:15:00,74.3,72.8,29.78,SE,135,3.1,12.5,95,0.01,,SHRA,0.01,VWS V13.01,2013-04-08 16:15:00,
2013-04-09 02:30:00,74.2,72.7,29.78,SE,135,1.9,8.7,95,0.01,,SHRA,0.01,VWS V13.01,2013-04-08 16:30:00,
2013-04-09 02:45:00,74.4,72.9,29.78,SE,135,0.6,8.7,95,0.01,,SHRA,0.01,VWS V13.01,2013-04-08 16:45:00,
2013-04-09 03:00:00,74.4,72.9,29.78,SSE,158,1.9,8.7,95,0.00,,SHRA,0.01,VWS V13.01,2013-04-08 17:00:00,
2013-04-09 03:15:00,74.6,72.4,29.77,SE,135,3.1,8.7,93,0.00,,SHRA,0.01,VWS V13.01,2013-04-08 17:15:00,
2013-04-09 03:30:00,74.9,72.7,29.76,SE,135,3.1,12.5,93,0.00,,SHRA,0.01,VWS V13.01,2013-04-08 17:30:00,
2013-04-09 03:45:00,74.6,72.8,29.76,SE,135,1.9,8.7,94,0.00,,SHRA,0.01,VWS V13.01,2013-04-08 17:45:00,
2013-04-09 04:00:00,74.6,72.8,29.75,SE,135,1.9,7.5,94,0.00,,SHRA,0.01,VWS V13.01,2013-04-08 18:00:00,
2013-04-09 04:15:00,74.6,72.4,29.75,SE,135,0.6,7.5,93,0.00,,SHRA,0.01,VWS V13.01,2013-04-08 18:15:00,
2013-04-09 04:30:00,74.7,72.2,29.76,SE,135,1.9,10.0,92,0.00,,SHRA,0.01,VWS V13.01,2013-04-08 18:30:00,
2013-04-09 04:45:00,75.2,72.4,29.76,SE,135,1.9,10.0,91,0.00,,SHRA,0.01,VWS V13.01,2013-04-08 18:45:00,
2013-04-09 05:00:00,75.6,72.5,29.76,SE,135,3.1,8.7,90,0.00,,SHRA,0.01,VWS V13.01,2013-04-08 19:00:00,
2013-04-09 05:15:00,75.8,72.7,29.77,SE,135,1.9,7.5,90,0.00,,SHRA,0.01,VWS V13.01,2013-04-08 19:15:00,
2013-04-09 05:30:00,75.5,72.7,29.78,SSE,158,1.9,7.5,91,0.00,,SHRA,0.01,VWS V13.01,2013-04-08 19:30:00,
2013-04-09 05:45:00,75.4,72.9,29.78,SSE,158,3.1,11.3,92,0.01,,SHRA,0.02,VWS V13.01,2013-04-08 19:45:00,
2013-04-09 06:00:00,74.9,73.1,29.79,South,180,3.1,8.7,94,0.04,,SHRA,0.05,VWS V13.01,2013-04-08 20:00:00,
2013-04-09 06:15:00,74.5,73.0,29.79,South,180,3.1,10.0,95,0.06,,SHRA,0.07,VWS V13.01,2013-04-08 20:15:00,
2013-04-09 06:30:00,74.4,72.9,29.79,South,180,3.1,10.0,95,0.07,,SHRA,0.08,VWS V13.01,2013-04-08 20:30:00,
2013-04-09 06:45:00,74.2,73.0,29.78,SSE,158,3.1,12.5,96,0.09,,SHRA,0.10,VWS V13.01,2013-04-08 20:45:00,
2013-04-09 06:58:00,74.2,73.0,29.78,SSE,158,3.1,12.5,96,0.09,,SHRA,0.10,VWS V13.01,2013-04-08 20:58:00,
2013-04-09 07:00:00,74.2,73.0,29.78,SE,130,0.6,12.5,96,0.10,,SHRA,0.12,VWS V13.01,2013-04-08 21:00:00,
2013-04-09 07:03:00,74.2,73.0,29.78,SE,128,0.6,12.5,96,0.07,,SHRA,0.12,VWS V13.01,2013-04-08 21:03:00,
2013-04-09 07:08:00,74.4,73.2,29.78,SE,144,3.1,12.5,96,0.08,,SHRA,0.13,VWS V13.01,2013-04-08 21:08:00,
2013-04-09 07:13:00,74.4,73.2,29.78,SE,126,4.4,12.5,96,0.09,,SHRA,0.13,VWS V13.01,2013-04-08 21:13:00,
2013-04-09 07:18:00,74.4,73.2,29.79,SSE,152,1.9,12.5,96,0.06,,OVC045,0.13,VWS V13.01,2013-04-08 21:18:00,
2013-04-09 07:23:00,74.6,73.4,29.79,SSE,159,0.6,12.5,96,0.06,,OVC045,0.13,VWS V13.01,2013-04-08 21:23:00,
2013-04-09 07:28:00,74.6,73.4,29.79,SE,145,0.6,12.5,96,0.06,,OVC045,0.13,VWS V13.01,2013-04-08 21:28:00,
2013-04-09 07:33:00,74.6,73.1,29.80,South,183,0.6,12.5,95,0.06,,OVC045,0.13,VWS V13.01,2013-04-08 21:33:00,
2013-04-09 07:38:00,74.7,73.2,29.80,SE,128,4.4,12.5,95,0.06,,OVC045,0.13,VWS V13.01,2013-04-08 21:38:00,
2013-04-09 07:43:00,74.7,73.2,29.80,SSE,148,5.6,12.5,95,0.06,,OVC045,0.13,VWS V13.01,2013-04-08 21:43:00,
2013-04-09 07:48:00,74.7,73.2,29.81,SE,137,8.1,12.5,95,0.04,,OVC045,0.14,VWS V13.01,2013-04-08 21:48:00,
2013-04-09 07:59:00,74.9,73.4,29.82,SSE,153,0.6,12.5,95,0.04,,OVC045,0.14,VWS V13.01,2013-04-08 21:59:00,
2013-04-09 09:25:00,76.5,74.0,29.83,SE,143,8.1,12.5,92,0.03,,OVC035,0.15,VWS V13.01,2013-04-08 23:25:00,
2013-04-09 09:30:00,76.3,74.1,29.84,SE,144,5.6,12.5,93,0.05,,OVC035,0.17,VWS V13.01,2013-04-08 23:30:00,
2013-04-09 09:35:00,76.0,74.2,29.84,SW,230,9.4,12.5,94,0.02,,-RA,0.17,VWS V13.01,2013-04-08 23:35:00,
2013-04-09 09:40:00,75.8,74.3,29.84,SSE,165,3.1,12.5,95,0.03,,-RA,0.17,VWS V13.01,2013-04-08 23:40:00,
2013-04-09 09:45:00,76.0,74.5,29.84,SE,126,1.9,12.5,95,0.03,,-RA,0.17,VWS V13.01,2013-04-08 23:45:00,
2013-04-09 09:50:00,76.0,74.5,29.84,SSE,163,0.6,12.5,95,0.03,,-RA,0.17,VWS V13.01,2013-04-08 23:50:00,
2013-04-09 10:24:00,76.8,75.3,29.84,South,190,0.6,12.5,95,0.04,,-RA,0.20,VWS V13.01,2013-04-09 00:24:00,
2013-04-09 10:29:00,77.4,75.9,29.84,SE,128,11.9,12.5,95,0.06,,-RA,0.20,VWS V13.01,2013-04-09 00:29:00,
2013-04-09 10:34:00,77.7,75.5,29.84,SSW,195,6.9,12.5,93,0.03,,-RA,0.20,VWS V13.01,2013-04-09 00:34:00,
2013-04-09 10:39:00,78.5,76.0,29.84,SSW,202,5.6,12.5,92,0.03,,-RA,0.20,VWS V13.01,2013-04-09 00:39:00,
2013-04-09 10:44:00,78.5,75.3,29.84,SSE,152,0.6,12.5,90,0.03,,-RA,0.20,VWS V13.01,2013-04-09 00:44:00,
2013-04-09 10:50:00,78.5,75.0,29.84,South,169,8.1,12.5,89,0.02,,BKN045,0.20,VWS V13.01,2013-04-09 00:50:00,
2013-04-09 10:55:00,78.3,74.5,29.84,ESE,117,5.6,12.5,88,0.02,,BKN045,0.20,VWS V13.01,2013-04-09 00:55:00,
2013-04-09 10:59:00,77.9,74.1,29.84,SW,234,0.6,12.5,88,0.02,,BKN045,0.20,VWS V13.01,2013-04-09 00:59:00,
2013-04-09 11:15:00,77.8,74.3,29.83,SE,135,4.4,15.0,89,0.03,,BKN045,0.20,VWS V13.01,2013-04-09 01:15:00,
2013-04-09 11:30:00,77.9,74.1,29.82,SSE,158,3.1,17.5,88,0.03,,BKN045,0.20,VWS V13.01,2013-04-09 01:30:00,
2013-04-09 11:45:00,78.0,74.2,29.81,SE,135,3.1,12.5,88,0.01,,BKN045,0.20,VWS V13.01,2013-04-09 01:45:00,
2013-04-09 12:00:00,79.3,74.1,29.81,SE,135,6.9,16.3,84,0.01,,BKN045,0.20,VWS V13.01,2013-04-09 02:00:00,
2013-04-09 12:15:00,79.1,75.2,29.80,SE,135,4.4,16.3,88,0.02,,BKN045,0.21,VWS V13.01,2013-04-09 02:15:00,
2013-04-09 12:30:00,78.4,74.6,29.79,SE,135,3.1,12.5,88,0.01,,BKN045,0.21,VWS V13.01,2013-04-09 02:30:00,
2013-04-09 12:39:00,77.9,74.4,29.84,SE,124,0.6,12.5,89,0.02,,BKN045,0.20,VWS V13.01,2013-04-09 02:39:00,
2013-04-09 12:45:00,78.8,73.6,29.78,SE,135,5.6,12.5,84,0.01,,BKN045,0.21,VWS V13.01,2013-04-09 02:45:00,
2013-04-09 13:00:00,79.3,73.7,29.78,SE,135,4.4,15.0,83,0.01,,BKN045,0.21,VWS V13.01,2013-04-09 03:00:00,
2013-04-09 13:15:00,80.0,74.4,29.76,SSE,158,4.4,12.5,83,0.01,,BKN045,0.21,VWS V13.01,2013-04-09 03:15:00,
2013-04-09 13:30:00,80.6,74.6,29.76,South,180,5.6,13.7,82,0.00,,BKN045,0.21,VWS V13.01,2013-04-09 03:30:00,
2013-04-09 13:45:00,79.9,73.9,29.76,South,180,5.6,15.0,82,0.00,,BKN045,0.21,VWS V13.01,2013-04-09 03:45:00,
2013-04-09 14:00:00,79.2,74.3,29.76,SE,135,3.1,12.5,85,0.00,,BKN045,0.21,VWS V13.01,2013-04-09 04:00:00,
2013-04-09 14:15:00,77.9,74.4,29.76,SE,135,3.1,11.3,89,0.00,,BKN045,0.21,VWS V13.01,2013-04-09 04:15:00,
2013-04-09 14:30:00,77.8,74.3,29.75,SE,135,4.4,11.3,89,0.00,,BKN045,0.21,VWS V13.01,2013-04-09 04:30:00,
2013-04-09 14:45:00,77.3,74.8,29.74,SE,135,3.1,12.5,92,0.00,,BKN045,0.21,VWS V13.01,2013-04-09 04:45:00,
2013-04-09 15:00:00,76.9,74.7,29.74,SE,135,1.9,8.7,93,0.01,,BKN045,0.22,VWS V13.01,2013-04-09 05:00:00,
2013-04-09 15:15:00,76.5,74.3,29.73,SSE,158,3.1,11.3,93,0.01,,BKN045,0.22,VWS V13.01,2013-04-09 05:15:00,
2013-04-09 15:30:00,76.3,74.1,29.73,SE,135,4.4,17.5,93,0.02,,BKN045,0.23,VWS V13.01,2013-04-09 05:30:00,
2013-04-09 15:45:00,76.0,74.5,29.73,SE,135,1.9,8.7,95,0.06,,BKN045,0.27,VWS V13.01,2013-04-09 05:45:00,
2013-04-09 16:00:00,75.8,74.3,29.73,SE,135,3.1,11.3,95,0.09,,BKN045,0.31,VWS V13.01,2013-04-09 06:00:00,
2013-04-09 16:15:00,75.2,74.0,29.73,South,180,1.9,10.0,96,0.13,,BKN045,0.35,VWS V13.01,2013-04-09 06:15:00,
2013-04-09 16:30:00,74.8,73.9,29.73,SSE,158,3.1,10.0,97,0.15,,BKN045,0.37,VWS V13.01,2013-04-09 06:30:00,
2013-04-09 16:45:00,74.6,73.7,29.73,SSW,202,1.9,7.5,97,0.17,,BKN045,0.39,VWS V13.01,2013-04-09 06:45:00,
2013-04-09 17:00:00,74.6,73.7,29.73,SSE,158,1.9,10.0,97,0.13,,BKN045,0.40,VWS V13.01,2013-04-09 07:00:00,
2013-04-09 17:15:00,74.4,73.5,29.74,SSE,158,1.9,7.5,97,0.09,,BKN045,0.40,VWS V13.01,2013-04-09 07:15:00,
2013-04-09 17:30:00,74.3,73.1,29.75,SE,135,1.9,10.0,96,0.08,,BKN045,0.43,VWS V13.01,2013-04-09 07:30:00,
2013-04-09 17:45:00,74.0,73.1,29.75,SSE,158,3.1,10.0,97,0.09,,BKN045,0.46,VWS V13.01,2013-04-09 07:45:00,
2013-04-09 18:00:00,73.8,72.9,29.75,SSE,158,3.1,10.0,97,0.06,,BKN045,0.46,VWS V13.01,2013-04-09 08:00:00,
2013-04-09 18:15:00,73.7,72.8,29.75,South,180,1.9,11.3,97,0.07,,BKN045,0.47,VWS V13.01,2013-04-09 08:15:00,
2013-04-09 18:30:00,73.6,72.7,29.75,SE,135,3.1,10.0,97,0.09,,BKN045,0.49,VWS V13.01,2013-04-09 08:30:00,
2013-04-09 18:45:00,73.5,72.6,29.75,SSE,158,1.9,11.3,97,0.08,,BKN045,0.50,VWS V13.01,2013-04-09 08:45:00,
2013-04-09 19:00:00,73.5,72.6,29.75,SE,135,3.1,11.3,97,0.06,,BKN045,0.51,VWS V13.01,2013-04-09 09:00:00,
2013-04-09 19:15:00,73.5,72.6,29.75,SSE,158,3.1,12.5,97,0.06,,BKN045,0.51,VWS V13.01,2013-04-09 09:15:00,
2013-04-09 19:30:00,73.4,72.2,29.75,SSE,158,3.1,8.7,96,0.05,,BKN045,0.52,VWS V13.01,2013-04-09 09:30:00,
2013-04-09 19:45:00,73.5,72.3,29.76,SSE,158,1.9,8.7,96,0.03,,BKN045,0.52,VWS V13.01,2013-04-09 09:45:00,
2013-04-09 20:00:00,73.5,72.3,29.77,SSW,202,1.9,10.0,96,0.02,,BKN045,0.52,VWS V13.01,2013-04-09 10:00:00,
2013-04-09 20:15:00,73.7,72.5,29.78,South,180,3.1,11.3,96,0.01,,BKN045,0.52,VWS V13.01,2013-04-09 10:15:00,
2013-04-09 20:30:00,73.7,72.2,29.77,SSE,158,3.1,10.0,95,0.01,,BKN045,0.52,VWS V13.01,2013-04-09 10:30:00,
2013-04-09 20:45:00,73.9,72.4,29.76,SE,135,1.9,11.3,95,0.00,,BKN045,0.52,VWS V13.01,2013-04-09 10:45:00,
2013-04-09 21:00:00,73.9,72.4,29.77,SSE,158,3.1,10.0,95,0.00,,BKN045,0.52,VWS V13.01,2013-04-09 11:00:00,
2013-04-09 21:15:00,74.0,72.5,29.78,SSE,158,3.1,11.3,95,0.00,,BKN045,0.52,VWS V13.01,2013-04-09 11:15:00,
2013-04-09 21:30:00,74.0,72.5,29.78,SE,135,3.1,7.5,95,0.00,,BKN045,0.52,VWS V13.01,2013-04-09 11:30:00,
2013-04-09 21:45:00,74.1,72.6,29.78,SE,135,1.9,10.0,95,0.00,,BKN045,0.52,VWS V13.01,2013-04-09 11:45:00,
2013-04-09 22:00:00,74.2,72.7,29.78,South,180,1.9,10.0,95,0.01,,BKN045,0.53,VWS V13.01,2013-04-09 12:00:00,
2013-04-09 22:15:00,74.2,72.7,29.78,South,180,3.1,13.7,95,0.02,,BKN045,0.54,VWS V13.01,2013-04-09 12:15:00,
2013-04-09 22:30:00,74.4,72.9,29.78,SE,135,3.1,10.0,95,0.04,,BKN045,0.56,VWS V13.01,2013-04-09 12:30:00,
2013-04-09 22:45:00,74.1,72.9,29.78,SSE,158,3.1,12.5,96,0.06,,BKN045,0.58,VWS V13.01,2013-04-09 12:45:00,
2013-04-09 23:00:00,73.8,72.9,29.79,SE,135,4.4,10.0,97,0.11,,BKN045,0.63,VWS V13.01,2013-04-09 13:00:00,
2013-04-09 23:15:00,73.6,73.0,29.79,SE,135,1.9,8.7,98,0.16,,BKN045,0.69,VWS V13.01,2013-04-09 13:15:00,
2013-04-09 23:30:00,73.5,72.9,29.78,SE,135,1.9,7.5,98,0.20,,BKN045,0.74,VWS V13.01,2013-04-09 13:30:00,
2013-04-09 23:45:00,73.5,72.9,29.78,SE,135,0.6,5.0,98,0.25,,BKN045,0.81,VWS V13.01,2013-04-09 13:45:00,